[[{"header":{"parameterUnit":"m.s-1","parameterCategory":1,"la1":30.2991,"la2":30.254,"lo1":-89.0895,"lo2":-89.0444,"dy":0.0017,"dx":0.0017,"nx":28,"ny":28,"refTime":"2024-06-06T21:00:00:Z","depth":0,"parameterNumber":2,"parameterNumberName":"U-component_of_WINDS"},"data":[0,0,0,0,0,0,0,0,0,0,0,0,0,0,0,0,0,0,0,0,0,0,0,0,0,0,0,0,0,0,0,0,0,0,0,0,0,0,0,0,0,0,0,0,0,0,0,0,0,0,0,0,0,0,0,0,0,0,-2.6446,-2.6446,0,-2.6492,-2.6492,-2.6493,-2.6387,-2.6384,-2.638,-2.6377,-2.6428,-2.6432,-2.6436,0,0,0,0,0,0,0,0,0,0,0,0,0,-2.6267,-2.6271,-2.6445,-2.6446,-2.6447,-2.6492,-2.6492,-2.6493,-2.6388,-2.6384,-2.6379,-2.6376,-2.6426,-2.6431,-2.6437,0,0,0,0,0,0,0,0,0,0,0,0,0,-2.6332,-2.6272,-2.6445,-2.6399,-2.6396,-2.6492,-2.6492,-2.6493,-2.6389,-2.6384,-2.6378,-2.6374,-2.6424,-2.6431,-2.6437,-2.6581,0,0,-2.6458,-2.6461,0,0,0,0,0,0,0,0,-2.6329,-2.6339,-2.6406,-2.6403,-2.6399,-2.6428,-2.6448,-2.6523,-2.639,-2.6391,-2.6377,-2.6371,-2.6432,-2.6438,-2.6458,-2.6583,-2.6585,-2.6459,-2.6463,-2.6466,-2.6468,0,0,0,0,0,0,0,-2.6324,-2.6336,-2.6464,-2.6407,-2.6403,-2.6377,-2.6381,-2.6462,-2.644,-2.6391,-2.6383,-2.639,-2.6429,-2.6452,-2.6458,-2.6586,-2.6459,-2.6465,-2.6469,-2.6471,-2.6831,-2.6837,0,0,0,0,0,0,-2.6325,-2.6333,-2.6462,-2.6465,-2.635,-2.6384,-2.6388,-2.6424,-2.6439,-2.6436,-2.6394,-2.6385,-2.6443,-2.6451,-2.646,-2.6629,-2.6466,-2.6472,-2.6476,-2.6826,-2.6833,-2.6838,0,0,0,0,0,0,-2.6322,-2.6338,-2.646,-2.6397,-2.6411,-2.6393,-2.6434,-2.6428,-2.645,-2.6441,-2.6437,-2.6421,-2.6439,-2.645,-2.6551,-2.6629,-2.6475,-2.6481,-2.6819,-2.6828,-2.6835,-2.6968,0,0,0,0,0,0,-2.6317,-2.6337,-2.6392,-2.6399,-2.6415,-2.6552,-2.6439,-2.6432,-2.6462,-2.645,-2.6465,-2.6463,-2.6436,-2.6542,-2.6558,-2.6635,-2.6486,-2.6812,-2.6823,-2.6833,-2.6957,-2.698,-2.7,0,0,0,0,0,-2.6311,-2.6428,-2.6395,-2.6411,-2.6482,-2.6556,-2.6565,-2.6531,-2.6468,-2.6523,-2.6517,-2.6462,-2.6617,-2.6553,-2.657,-2.6651,-2.6807,-2.682,-2.6832,-2.6947,-2.6975,-2.6999,0,0,0,0,0,0,-2.6431,-2.6428,-2.6391,-2.6514,-2.6536,-2.6538,-2.6606,-2.6562,-2.6603,-2.659,-2.6546,-2.6551,-2.666,-2.6665,-2.6594,-2.679,-2.6702,-2.6718,-2.6783,-2.681,-2.6831,-2.6828,-2.6492,0,0,0,0,0,-2.6471,-2.6531,-2.6525,-2.6634,-2.6647,-2.6625,-2.6656,-2.6627,-2.6649,-2.6658,-2.6659,-2.6683,-2.6737,-2.6773,-2.6823,-2.6956,-2.6958,-2.702,-2.7042,-2.7059,-2.7075,-2.7146,-2.7173,-2.6879,-2.6879,-2.6879,0,0,-2.6556,-2.6561,-2.6602,-2.6658,-2.6672,-2.6735,-2.6633,-2.6705,-2.6752,-2.6669,-2.6764,-2.6766,-2.679,-2.6908,-2.696,-2.6916,-2.7156,-2.7075,-2.7089,-2.7095,-2.7161,-2.7189,-2.7214,-2.6888,-2.6886,-2.6885,0,0,-2.6742,-2.6752,-2.6844,-2.6859,-2.6881,-2.6865,-2.6887,-2.6896,-2.6894,-2.6989,-2.6928,-2.6983,-2.7077,-2.7096,-2.7118,-2.731,-2.7262,-2.7327,-2.744,-2.751,-2.7533,-2.7554,-2.7623,-2.7648,-2.7342,-2.7343,-2.7343,0,-2.6845,-2.6938,-2.6896,-2.6972,-2.6999,-2.6925,-2.7017,-2.7034,-2.7072,-2.7092,-2.7041,-2.7157,-2.7167,-2.7289,-2.7336,-2.7356,-2.738,-2.7326,-2.7533,-2.7553,-2.7572,-2.7637,-2.7663,-2.7351,-2.735,-2.7349,-2.7348,0,-2.7063,-2.7128,-2.7199,-2.7236,-2.727,-2.7354,-2.7326,-2.7366,-2.7334,-2.7324,-2.7421,-2.7431,-2.7481,-2.7507,-2.7477,-2.7625,-2.7596,-2.754,-2.7451,-2.7608,-2.7669,-2.7694,-2.7362,-2.7359,-2.7357,-2.7355,0,0,-2.7328,-2.7339,-2.7366,-2.7382,-2.74,-2.745,-2.753,-2.7577,-2.7613,-2.764,-2.7707,-2.7787,-2.7735,-2.776,-2.7732,-2.7793,-2.7945,-2.7729,-2.7729,-2.777,-2.8109,-2.8152,-2.8182,-2.7912,-2.7917,-2.7921,-2.8107,0,-2.7513,-2.765,-2.7615,-2.7752,-2.7812,-2.7742,-2.7812,-2.7831,-2.7823,-2.7873,-2.7864,-2.7922,-2.7849,-2.7863,-2.792,-2.7915,-2.8013,-2.79,-2.7975,-2.7978,-2.7973,-2.8213,-2.8259,-2.8435,-2.8131,-2.8135,-2.8137,0,-2.7748,-2.7783,-2.7926,-2.7933,-2.7957,-2.8021,-2.8061,-2.8109,-2.8129,-2.8119,-2.8147,-2.8105,-2.8185,-2.8094,-2.8203,-2.8127,-2.8155,-2.8157,-2.8163,-2.817,-2.8068,-2.8228,-2.849,-2.8517,-2.8174,-2.8171,-2.8169,0,-2.7928,-2.8011,-2.8107,-2.8123,-2.8133,-2.818,-2.8187,-2.8201,-2.8232,-2.8267,-2.8286,-2.8331,-2.8356,-2.8392,-2.8364,-2.8299,-2.8478,-2.8384,-2.8473,-2.8474,-2.8515,-2.8513,-2.8786,-2.8531,-2.8531,-2.853,-2.853,0,-2.8139,-2.8229,-2.8188,-2.8248,-2.8347,-2.8305,-2.8404,-2.8403,-2.8416,-2.8474,-2.8416,-2.8472,-2.8431,-2.8484,-2.8462,-2.8556,-2.8568,-2.8562,-2.8556,-2.8568,-2.8569,-2.8587,-2.8575,-2.8537,-2.8536,-2.8534,-2.8533,0,-2.8357,-2.8333,-2.8434,-2.8435,-2.8437,-2.851,-2.8512,-2.8567,-2.8554,-2.8628,-2.8643,-2.8624,-2.8683,-2.8658,-2.872,-2.8705,-2.8826,-2.8803,-2.882,-2.8814,-2.8904,-2.8896,-2.92,-2.9238,-2.8958,-2.8961,-2.8963,0,-2.8494,-2.8562,-2.857,-2.8604,-2.8615,-2.8671,-2.8701,-2.8663,-2.8697,-2.8724,-2.8776,-2.8829,-2.887,-2.8967,-2.8959,-2.9006,-2.8984,-2.9087,-2.8991,-2.9001,-2.8987,-2.8983,-2.899,-2.9107,-2.911,-2.9113,-2.9115,0,-2.874,-2.8724,-2.877,-2.8812,-2.885,-2.8881,-2.8907,-2.8939,-2.8901,-2.8943,-2.9001,-2.9033,-2.9095,-2.915,-2.9191,-2.9198,-2.9152,-2.9145,-2.9168,-2.9182,-2.9189,-2.9187,-2.8873,-2.9139,-2.9136,-2.9135,-2.9133,-2.9132,-2.8922,-2.8979,-2.8993,-2.9046,-2.9061,-2.9087,-2.9139,-2.9132,-2.918,-2.9227,-2.9201,-2.927,-2.9287,-2.9338,-2.9351,-2.9405,-2.9364,-2.9398,-2.9406,-2.9416,-2.9428,-2.918,-2.9412,-2.9411,-2.9411,-2.941,-2.941,0,-2.9165,-2.9171,-2.922,-2.9258,-2.9299,-2.9249,-2.9276,-2.9314,-2.9375,-2.9394,-2.9435,-2.9503,-2.9554,-2.955,-2.9597,-2.9641,-2.9621,-2.9655,-2.9652,-2.9654,-2.9461,-2.9436,-2.967,-2.967,-2.967,-2.967,-2.967,-2.967,-2.9297,-2.939,-2.9376,-2.9477,-2.9481,-2.9547,-2.9566,-2.959,-2.9605,-2.9683,-2.9725,-2.9721,-2.9731,-2.9778,-2.9824,-2.9821,-2.9842,-2.9884,-2.9874,-2.9694,-2.9668,-2.9643,-2.962,-2.9889,-2.9889,-3.0063,-3.0064,-3.0065]},{"header":{"parameterUnit":"m.s-1","parameterCategory":1,"la1":30.2991,"la2":30.254,"lo1":-89.0895,"lo2":-89.0444,"dy":0.0017,"dx":0.0017,"nx":28,"ny":28,"refTime":"2024-06-06T21:00:00:Z","depth":0,"parameterNumber":3,"parameterNumberName":"V-component_of_WINDS"},"data":[0,0,0,0,0,0,0,0,0,0,0,0,0,0,0,0,0,0,0,0,0,0,0,0,0,0,0,0,0,0,0,0,0,0,0,0,0,0,0,0,0,0,0,0,0,0,0,0,0,0,0,0,0,0,0,0,0,0,-2.1596,-2.1596,0,-2.1567,-2.1567,-2.1567,-2.1551,-2.1551,-2.1551,-2.1551,-2.1521,-2.152,-2.1519,0,0,0,0,0,0,0,0,0,0,0,0,0,-2.1635,-2.1634,-2.1596,-2.1596,-2.1595,-2.1567,-2.1567,-2.1567,-2.1551,-2.1551,-2.1551,-2.1551,-2.1521,-2.152,-2.1519,0,0,0,0,0,0,0,0,0,0,0,0,0,-2.1613,-2.1634,-2.1596,-2.1584,-2.1583,-2.1568,-2.1567,-2.1567,-2.1551,-2.1551,-2.1551,-2.1551,-2.1521,-2.152,-2.1519,-2.1513,0,0,-2.1516,-2.1515,0,0,0,0,0,0,0,0,-2.1615,-2.1612,-2.1586,-2.1585,-2.1584,-2.1563,-2.157,-2.1549,-2.1551,-2.1563,-2.1551,-2.1551,-2.1535,-2.1533,-2.1527,-2.1512,-2.151,-2.1516,-2.1515,-2.1514,-2.1514,0,0,0,0,0,0,0,-2.1616,-2.1613,-2.1585,-2.1586,-2.1584,-2.158,-2.1577,-2.1566,-2.155,-2.1562,-2.1561,-2.1558,-2.1534,-2.1528,-2.1526,-2.151,-2.1516,-2.1515,-2.1514,-2.1513,-2.1485,-2.1485,0,0,0,0,0,0,-2.162,-2.1614,-2.1586,-2.1584,-2.1599,-2.1579,-2.1575,-2.157,-2.155,-2.1547,-2.1558,-2.1557,-2.153,-2.1528,-2.1525,-2.1515,-2.1514,-2.1513,-2.1513,-2.1485,-2.1485,-2.1485,0,0,0,0,0,0,-2.1621,-2.1617,-2.1587,-2.1599,-2.1595,-2.1578,-2.1572,-2.1569,-2.1563,-2.1547,-2.1543,-2.1555,-2.153,-2.1527,-2.1516,-2.1514,-2.1513,-2.1512,-2.1485,-2.1485,-2.1485,-2.1496,0,0,0,0,0,0,-2.1622,-2.1618,-2.1616,-2.1599,-2.1594,-2.1578,-2.1572,-2.1568,-2.1562,-2.156,-2.1543,-2.154,-2.153,-2.1517,-2.1515,-2.1512,-2.1511,-2.1485,-2.1485,-2.1485,-2.1496,-2.1496,-2.1497,0,0,0,0,0,-2.1623,-2.1621,-2.1616,-2.1613,-2.1592,-2.1578,-2.1576,-2.1564,-2.1562,-2.1559,-2.1548,-2.1541,-2.1515,-2.1516,-2.1513,-2.151,-2.1485,-2.1485,-2.1485,-2.1495,-2.1496,-2.1497,0,0,0,0,0,0,-2.1638,-2.1618,-2.1613,-2.1605,-2.1593,-2.1576,-2.1573,-2.1565,-2.1554,-2.1554,-2.1539,-2.1536,-2.1525,-2.1517,-2.1519,-2.1502,-2.1499,-2.1498,-2.1508,-2.1509,-2.1509,-2.1511,-2.151,0,0,0,0,0,-2.164,-2.1632,-2.1615,-2.1609,-2.1604,-2.1589,-2.1583,-2.1575,-2.1562,-2.1557,-2.1546,-2.1533,-2.1522,-2.1515,-2.1504,-2.1494,-2.1489,-2.149,-2.1491,-2.1492,-2.1491,-2.1483,-2.1483,-2.1484,-2.1484,-2.1484,0,0,-2.1645,-2.1633,-2.1629,-2.1612,-2.1602,-2.1593,-2.1585,-2.1576,-2.1569,-2.1556,-2.1544,-2.1535,-2.152,-2.1509,-2.1504,-2.1502,-2.1489,-2.1491,-2.1492,-2.1491,-2.1483,-2.1483,-2.1482,-2.1484,-2.1484,-2.1484,0,0,-2.1649,-2.164,-2.1633,-2.1623,-2.1608,-2.1598,-2.1596,-2.1579,-2.1573,-2.1561,-2.155,-2.1541,-2.1522,-2.1511,-2.1503,-2.15,-2.1493,-2.1497,-2.15,-2.1492,-2.1492,-2.1492,-2.1489,-2.1489,-2.1497,-2.1497,-2.1497,0,-2.1656,-2.1643,-2.163,-2.1621,-2.1613,-2.1601,-2.1593,-2.1584,-2.1566,-2.156,-2.1559,-2.1533,-2.1523,-2.1508,-2.1507,-2.1502,-2.1498,-2.1499,-2.1493,-2.1493,-2.1492,-2.149,-2.1489,-2.1497,-2.1497,-2.1497,-2.1497,0,-2.1652,-2.1642,-2.1638,-2.1621,-2.1613,-2.1604,-2.159,-2.1582,-2.1575,-2.1564,-2.1551,-2.1537,-2.1522,-2.1518,-2.1511,-2.1502,-2.15,-2.1496,-2.1493,-2.1493,-2.149,-2.1489,-2.1498,-2.1498,-2.1498,-2.1497,0,0,-2.1665,-2.164,-2.1638,-2.1629,-2.1611,-2.1603,-2.1593,-2.1578,-2.1572,-2.1559,-2.155,-2.1533,-2.1528,-2.1519,-2.151,-2.1504,-2.15,-2.15,-2.1499,-2.1499,-2.1486,-2.1489,-2.1488,-2.1495,-2.1494,-2.1494,-2.1487,0,-2.1665,-2.1647,-2.1635,-2.1622,-2.1612,-2.1599,-2.159,-2.1577,-2.1567,-2.1556,-2.1544,-2.1532,-2.1528,-2.1522,-2.1515,-2.1502,-2.1497,-2.1502,-2.1484,-2.1484,-2.1488,-2.1487,-2.1491,-2.1485,-2.1486,-2.1486,-2.1486,0,-2.1663,-2.165,-2.1636,-2.1617,-2.1612,-2.1605,-2.1589,-2.1579,-2.1564,-2.1556,-2.1545,-2.1535,-2.1523,-2.1521,-2.1502,-2.1506,-2.1498,-2.149,-2.1489,-2.1487,-2.1485,-2.1483,-2.1483,-2.1482,-2.1484,-2.1484,-2.1485,0,-2.1672,-2.1652,-2.164,-2.1633,-2.1611,-2.1605,-2.1596,-2.158,-2.1571,-2.1557,-2.1551,-2.1536,-2.1527,-2.1515,-2.15,-2.15,-2.1483,-2.148,-2.1475,-2.1475,-2.1472,-2.1472,-2.1469,-2.1468,-2.1468,-2.1468,-2.1468,0,-2.1673,-2.1664,-2.1643,-2.1636,-2.1626,-2.1611,-2.16,-2.159,-2.1575,-2.1565,-2.1553,-2.1543,-2.1525,-2.1512,-2.1501,-2.1486,-2.1483,-2.1475,-2.1472,-2.1476,-2.1477,-2.147,-2.147,-2.1468,-2.1468,-2.1468,-2.1468,0,-2.1681,-2.1667,-2.1653,-2.1633,-2.1628,-2.1621,-2.1603,-2.1594,-2.1583,-2.1569,-2.1565,-2.1547,-2.1531,-2.1516,-2.1495,-2.1487,-2.1472,-2.1468,-2.1477,-2.1475,-2.1471,-2.1471,-2.1462,-2.146,-2.1462,-2.1462,-2.1462,0,-2.1683,-2.1676,-2.1654,-2.1646,-2.1637,-2.1625,-2.1615,-2.16,-2.159,-2.1571,-2.1564,-2.1548,-2.1534,-2.1509,-2.1493,-2.1476,-2.1471,-2.1469,-2.1468,-2.1472,-2.1469,-2.1469,-2.1468,-2.1469,-2.1469,-2.147,-2.147,0,-2.1686,-2.1678,-2.1666,-2.165,-2.1639,-2.1626,-2.1612,-2.1606,-2.1588,-2.1577,-2.1561,-2.155,-2.1528,-2.1511,-2.1492,-2.148,-2.1471,-2.147,-2.1467,-2.1471,-2.1476,-2.1471,-2.1477,-2.147,-2.147,-2.147,-2.147,-2.147,-2.169,-2.1682,-2.1665,-2.1651,-2.1639,-2.1626,-2.1616,-2.1603,-2.159,-2.1571,-2.1562,-2.1545,-2.1527,-2.1501,-2.1489,-2.1475,-2.1473,-2.147,-2.1469,-2.1468,-2.1468,-2.1479,-2.1471,-2.1471,-2.1471,-2.1471,-2.1471,0,-2.1691,-2.1679,-2.1666,-2.1647,-2.1635,-2.1628,-2.1612,-2.1602,-2.1587,-2.1572,-2.1558,-2.1538,-2.152,-2.1502,-2.1484,-2.1476,-2.1471,-2.1471,-2.1471,-2.1468,-2.1472,-2.1475,-2.1475,-2.1475,-2.1475,-2.1475,-2.1475,-2.1475,-2.169,-2.1676,-2.1667,-2.1646,-2.1634,-2.1618,-2.1609,-2.1596,-2.1583,-2.1562,-2.1548,-2.1536,-2.1519,-2.1498,-2.1482,-2.1476,-2.147,-2.1471,-2.1465,-2.1468,-2.1468,-2.1468,-2.1471,-2.147,-2.147,-2.1462,-2.1462,-2.1461]}]]